Hourly Weather Kistowo

Today, 21 April, Wednesday

Time Temperature Precipitation Wind Pressure Humidity
00:00 +7°C° 0 mm 0 mps 739 mmHg 75%
01:00 +6°C° 0 mm 0 mps 739 mmHg 75%
02:00 +7°C° 0 mm 1 mps 739 mmHg 77%
03:00 +6°C° 0 mm 1 mps 738 mmHg 78%
04:00 +6°C° 0 mm 1 mps 738 mmHg 80%
05:00 +6°C° 0 mm 2 mps 738 mmHg 74%
06:00 +7°C° 0 mm 2 mps 738 mmHg 68%
07:00 +8°C° 0 mm 2 mps 738 mmHg 62%
08:00 +10°C° 0 mm 3 mps 738 mmHg 56%
09:00 +11°C° 0 mm 3 mps 738 mmHg 50%
10:00 +13°C° 0 mm 4 mps 738 mmHg 44%
11:00 +13°C° 0 mm 5 mps 738 mmHg 43%
12:00 +14°C° 0 mm 5 mps 737 mmHg 41%
13:00 +14°C° 0 mm 6 mps 737 mmHg 39%
14:00 +13°C° 0 mm 6 mps 737 mmHg 45%
15:00 +11°C° 0 mm 7 mps 737 mmHg 50%
16:00 +10°C° 0 mm 7 mps 737 mmHg 55%
17:00 +9°C° 0 mm 6 mps 737 mmHg 58%
18:00 +7°C° 0 mm 6 mps 737 mmHg 60%
19:00 +6°C° 0 mm 5 mps 737 mmHg 62%
20:00 +5°C° 0 mm 5 mps 737 mmHg 64%
21:00 +3°C° 0 mm 5 mps 737 mmHg 65%
22:00 +2°C° 0 mm 5 mps 736 mmHg 66%
23:00 +2°C° 0 mm 6 mps 736 mmHg 66%

Tomorrow, 22 April, Thursday

Time Temperature Precipitation Wind Pressure Humidity
00:00 +1°C° 0 mm 6 mps 736 mmHg 67%
01:00 +1°C° 0 mm 6 mps 736 mmHg 67%
02:00 0°C° 0 mm 7 mps 736 mmHg 70%
03:00 0°C° 0 mm 7 mps 735 mmHg 72%
04:00 -1°C° 0 mm 8 mps 735 mmHg 74%
05:00 0°C° 0 mm 8 mps 735 mmHg 71%
06:00 +1°C° 0 mm 8 mps 735 mmHg 68%
07:00 +1°C° 0 mm 9 mps 735 mmHg 65%
08:00 +1°C° 0.3 mm 9 mps 735 mmHg 66%
09:00 +1°C° 0.3 mm 9 mps 736 mmHg 66%
10:00 +2°C° 0.3 mm 9 mps 736 mmHg 66%
11:00 +2°C° 0.1 mm 9 mps 736 mmHg 65%
12:00 +2°C° 0.1 mm 9 mps 737 mmHg 63%
13:00 +2°C° 0.1 mm 8 mps 737 mmHg 62%
14:00 +1°C° 0.1 mm 8 mps 737 mmHg 63%
15:00 +1°C° 0.1 mm 8 mps 738 mmHg 65%
16:00 +1°C° 0.1 mm 8 mps 738 mmHg 66%
17:00 +2°C° 0.1 mm 7 mps 738 mmHg 68%
18:00 +2°C° 0.1 mm 7 mps 739 mmHg 69%
19:00 +1°C° 0.1 mm 6 mps 739 mmHg 70%
20:00 +1°C° 0 mm 6 mps 739 mmHg 71%
21:00 +1°C° 0 mm 5 mps 739 mmHg 72%
22:00 +1°C° 0 mm 5 mps 740 mmHg 72%
23:00 0°C° 0 mm 5 mps 740 mmHg 74%

Day after tomorrow, 23 April, Friday

Time Temperature Precipitation Wind Pressure Humidity
00:00 0°C° 0 mm 4 mps 740 mmHg 75%
01:00 0°C° 0 mm 4 mps 740 mmHg 77%
02:00 +1°C° 0 mm 3 mps 740 mmHg 76%
03:00 0°C° 0 mm 3 mps 740 mmHg 75%
04:00 0°C° 0 mm 3 mps 740 mmHg 74%
05:00 0°C° 0.3 mm 3 mps 741 mmHg 77%
06:00 0°C° 0.3 mm 4 mps 741 mmHg 80%
07:00 0°C° 0.3 mm 4 mps 741 mmHg 83%
08:00 +1°C° 0.2 mm 5 mps 741 mmHg 70%
09:00 +2°C° 0.2 mm 5 mps 741 mmHg 56%
10:00 +3°C° 0.2 mm 6 mps 742 mmHg 43%
11:00 +3°C° 0 mm 6 mps 742 mmHg 43%
12:00 +3°C° 0 mm 7 mps 742 mmHg 43%
13:00 +2°C° 0 mm 8 mps 743 mmHg 43%
14:00 +3°C° 0 mm 7 mps 743 mmHg 42%
15:00 +4°C° 0 mm 7 mps 743 mmHg 41%
16:00 +4°C° 0 mm 6 mps 743 mmHg 39%
17:00 +3°C° 0 mm 5 mps 744 mmHg 43%
18:00 +3°C° 0 mm 4 mps 744 mmHg 47%
19:00 +1°C° 0 mm 4 mps 744 mmHg 50%
20:00 +1°C° 0 mm 4 mps 744 mmHg 54%
21:00 0°C° 0 mm 4 mps 744 mmHg 58%
22:00 0°C° 0 mm 4 mps 744 mmHg 62%
23:00 0°C° 0 mm 4 mps 744 mmHg 62%

24 April, Saturday

Time Temperature Precipitation Wind Pressure Humidity
00:00 0°C° 0 mm 4 mps 744 mmHg 62%
01:00 0°C° 0 mm 4 mps 744 mmHg 62%
02:00 0°C° 0 mm 4 mps 744 mmHg 64%
03:00 -1°C° 0 mm 4 mps 744 mmHg 66%
04:00 -1°C° 0 mm 4 mps 745 mmHg 68%
05:00 0°C° 0 mm 4 mps 745 mmHg 64%
06:00 +1°C° 0 mm 4 mps 745 mmHg 60%
07:00 +3°C° 0 mm 4 mps 745 mmHg 56%
08:00 +3°C° 0.1 mm 5 mps 745 mmHg 52%
09:00 +5°C° 0.1 mm 5 mps 745 mmHg 47%
10:00 +4°C° 0.1 mm 6 mps 745 mmHg 43%
11:00 +4°C° 0 mm 6 mps 745 mmHg 41%
12:00 +4°C° 0 mm 6 mps 745 mmHg 39%
13:00 +4°C° 0 mm 7 mps 745 mmHg 37%
14:00 +4°C° 0 mm 6 mps 746 mmHg 37%
15:00 +4°C° 0 mm 6 mps 746 mmHg 37%
16:00 +3°C° 0 mm 5 mps 746 mmHg 38%
17:00 +2°C° 0 mm 5 mps 746 mmHg 44%
18:00 +1°C° 0 mm 4 mps 747 mmHg 49%
19:00 +1°C° 0 mm 3 mps 747 mmHg 55%
20:00 +1°C° 0 mm 3 mps 747 mmHg 60%
21:00 +1°C° 0 mm 2 mps 747 mmHg 65%
22:00 -1°C° 0 mm 2 mps 747 mmHg 70%
23:00 -1°C° 0 mm 2 mps 747 mmHg 71%

25 April, Sunday

Time Temperature Precipitation Wind Pressure Humidity
00:00 -1°C° 0 mm 2 mps 747 mmHg 73%
01:00 -2°C° 0 mm 2 mps 747 mmHg 74%
02:00 -1°C° 0 mm 2 mps 747 mmHg 75%
03:00 -1°C° 0 mm 2 mps 747 mmHg 76%
04:00 -1°C° 0 mm 2 mps 746 mmHg 77%
05:00 0°C° 0.1 mm 3 mps 746 mmHg 72%
06:00 0°C° 0.1 mm 4 mps 746 mmHg 67%
07:00 +1°C° 0.1 mm 5 mps 746 mmHg 62%
08:00 +2°C° 0.1 mm 6 mps 746 mmHg 55%
09:00 +3°C° 0.1 mm 6 mps 746 mmHg 49%
10:00 +3°C° 0.1 mm 7 mps 746 mmHg 43%
11:00 +4°C° 0 mm 7 mps 746 mmHg 41%
12:00 +4°C° 0 mm 7 mps 746 mmHg 39%
13:00 +4°C° 0 mm 7 mps 747 mmHg 37%
14:00 +4°C° 0 mm 6 mps 747 mmHg 37%
15:00 +4°C° 0 mm 6 mps 746 mmHg 37%
16:00 +5°C° 0 mm 5 mps 746 mmHg 36%
17:00 +4°C° 0 mm 4 mps 746 mmHg 41%
18:00 +3°C° 0 mm 3 mps 746 mmHg 46%
19:00 +3°C° 0 mm 2 mps 746 mmHg 51%
20:00 +2°C° 0 mm 2 mps 746 mmHg 61%
21:00 +1°C° 0 mm 2 mps 746 mmHg 72%
22:00 +1°C° 0 mm 2 mps 746 mmHg 83%
23:00 -1°C° 0 mm 2 mps 746 mmHg 86%

26 April, Monday

Time Temperature Precipitation Wind Pressure Humidity
00:00 -1°C° 0 mm 2 mps 745 mmHg 89%
01:00 -1°C° 0 mm 2 mps 745 mmHg 93%
02:00 -1°C° 0 mm 2 mps 745 mmHg 93%
03:00 -1°C° 0 mm 2 mps 745 mmHg 93%
04:00 -2°C° 0 mm 2 mps 745 mmHg 93%
05:00 +1°C° 0 mm 2 mps 745 mmHg 82%
06:00 +3°C° 0 mm 2 mps 745 mmHg 71%
07:00 +4°C° 0 mm 3 mps 745 mmHg 60%
08:00 +5°C° 0 mm 3 mps 745 mmHg 51%
09:00 +8°C° 0 mm 3 mps 745 mmHg 42%
10:00 +9°C° 0 mm 3 mps 745 mmHg 33%
11:00 +10°C° 0 mm 3 mps 745 mmHg 32%
12:00 +10°C° 0 mm 3 mps 745 mmHg 31%
13:00 +11°C° 0 mm 3 mps 744 mmHg 30%
14:00 +11°C° 0 mm 3 mps 744 mmHg 31%
15:00 +11°C° 0 mm 3 mps 744 mmHg 32%
16:00 +11°C° 0 mm 3 mps 744 mmHg 32%
17:00 +9°C° 0 mm 2 mps 743 mmHg 39%
18:00 +8°C° 0 mm 2 mps 743 mmHg 47%
19:00 +6°C° 0 mm 2 mps 743 mmHg 54%
20:00 +5°C° 0 mm 2 mps 742 mmHg 57%
21:00 +4°C° 0 mm 2 mps 742 mmHg 60%
22:00 +4°C° 0 mm 2 mps 742 mmHg 63%
23:00 +4°C° 0 mm 2 mps 742 mmHg 65%
Show more

We Need Your Consent

Meteoprog and our Service Providers may store and access personal data such as cookies, device identifiers or other similar technologies on your device and process such data to personalise content and ads, as well as provide social media features and to analyse the traffic.

  • Store and/or access information on your device

    Cookies, device identifiers or other information can be stored or accessed on your device for the purposes indicated above.

  • Personalised ads and content, ad and content measurement, audience insights, and products development

    Ads and content can be personalised based on a profile. More data can be added to better personalise ads and content. Ad and content performance can be measured. Insights about the audience who saw the ads and content can be derived. Such data can be used to develop or improve user’s experience, systems and software.

By clicking ‘I Agree’ you will allow the use of indicated cookies, device identifiers, web beacons or other similar technologies. Your settings can be changed in the browser on your device.

For certain purposes, legitimate interests may be relied on, rather than consent. You can read more about this in our Privacy and Cookie Policy.